Weather in Polom

Russia / Kirov Oblast     57°54′57″N   51°12′15″E
temp.,
°C
wind,
m/s
gust,
m/s
humid.,
%
clouds,
%
prec.,
mm/h
press.,
hPa
HPBL,
m
16 april, fri
fri1600:00+5ne61281100 0.0 1025584
03:00+4ne61178100 0.1 1026611
06:00+2ne6127514 0.0 1028501
09:00+5ene69675 0.0 1029686
12:00+8ne67490 0.0 10291005
15:00+9ne56431 0.0 10291145
18:00+6ne36595 0.0 1029117
21:00+3ene35690 0.0 103085
17 april, sat
sat1700:00+1ne34755 0.0 103068
03:000ne33765 0.0 103142
06:00+2nne25725 0.0 1031147
09:00+6nne35550 0.0 1031695
12:00+9n34495 0.0 10291234
15:00+10n45465 0.0 10281347
18:00+8nnw35617 0.0 102789
21:00+5nw35725 0.0 102784
18 april, sun
sun1800:00+3nnw38810 0.0 1027155
03:00+2nnw37870 0.0 1027139
06:00+3n410875 0.0 1028367
09:00+4ne676255 0.0 10291025
12:00+6ne67415 0.0 10301517
15:00+6ene67344 0.0 10311695
18:00+4ene58445 0.0 1032503
21:00+1ene511585 0.0 1033316
19 april, mon
mon1900:000ene512630 0.0 1035387
03:00−1ene510645 0.0 1036336
06:000e59584 0.0 1037383
09:00+3e67394 0.0 10381394
12:00+5e56335 0.0 10371641
15:00+6e56310 0.0 10361640
18:00+4e36430 0.0 1037153
21:000ese36540 0.0 103898
20 april, tue
tue2000:000se36520 0.0 1038103
03:00−1ese35490 0.0 103892
06:00+1ese36430 0.0 1038222
09:00+5se45290 0.0 1037889
12:00+8se45290 0.0 10351262
15:00+9sse34300 0.0 10341394
18:00+7se35460 0.0 103282
21:00+3sse465494 0.0 103393